period_start,C,m1,H,J0,J1,J2,J3,J4,J5,JA,JB,JC,JD,JJ,JK,JN,#
2015-09-18 00:03:00,0.00,0.43,0.00,21.40,27.38,30.53,14.75,48.81,1017.68,2039.00,3307.87,3114.08,3383.00,600.20,600.12,35.41,0000 0000 0000 0000 000000
2015-09-18 00:08:02,-0.00,0.43,0.00,21.48,27.37,30.56,14.78,48.97,1017.70,2039.00,3307.85,3114.11,3383.00,600.42,600.17,35.46,0000 0000 0000 0000 000000
2015-09-18 00:13:03,-0.00,0.43,0.00,21.84,27.37,30.56,14.61,48.85,1017.85,2039.00,3307.91,3114.08,3383.00,599.90,599.00,35.51,0000 0000 0000 0000 000000
2015-09-18 00:18:04,0.00,0.43,0.00,21.88,27.39,30.44,14.65,49.06,1017.87,2039.00,3307.74,3114.03,3383.00,600.06,599.28,35.57,0000 0000 0000 0000 000000
2015-09-18 00:23:06,0.01,0.43,0.00,21.71,27.40,30.45,14.72,48.94,1017.93,2039.00,3307.31,3114.02,3382.99,600.06,599.52,35.62,0000 0000 0000 0000 000000
2015-09-18 00:28:07,0.00,0.43,0.00,21.58,27.40,30.61,14.67,48.87,1017.95,2039.00,3307.22,3114.02,3382.98,599.89,599.53,35.67,0000 0000 0000 0000 000000
2015-09-18 00:33:08,0.00,0.43,0.00,21.54,27.40,30.65,14.73,49.04,1017.98,2039.00,3307.09,3114.01,3382.99,599.93,599.70,35.72,0000 0000 0000 0000 000000
2015-09-18 00:38:10,0.00,0.43,0.00,21.49,27.40,30.62,14.71,49.19,1017.98,2038.99,3307.19,3114.03,3382.99,599.93,599.77,35.77,0000 0000 0000 0000 000000
2015-09-18 00:43:11,0.00,0.43,0.00,21.44,27.39,30.56,14.72,49.09,1017.99,2039.00,3307.25,3114.01,3382.99,600.02,599.94,35.82,0000 0000 0000 0000 000000
2015-09-18 00:48:12,-0.00,0.43,0.00,21.60,27.39,30.64,14.70,49.10,1017.99,2039.00,3307.30,3114.01,3382.99,600.11,599.68,35.87,0000 0000 0000 0000 000000
2015-09-18 00:53:14,-0.00,0.43,0.00,21.94,27.40,30.55,14.65,48.93,1017.98,2039.00,3307.51,3114.02,3382.99,599.99,599.04,35.92,0000 0000 0000 0000 000000
2015-09-18 00:58:15,0.00,0.43,0.00,21.85,27.40,30.44,14.68,48.96,1017.96,2039.00,3307.23,3114.00,3382.98,599.95,599.16,35.97,0000 0000 0000 0000 000000
2015-09-18 01:03:17,0.00,0.43,0.00,21.71,27.40,30.47,14.66,48.88,1017.99,2039.00,3307.10,3114.00,3382.96,599.83,599.36,36.02,0000 0000 0000 0000 000000
2015-09-18 01:08:18,0.00,0.43,0.00,21.61,27.40,30.60,14.66,48.95,1018.03,2039.00,3307.04,3114.00,3382.97,599.95,599.66,36.07,0000 0000 0000 0000 000000
2015-09-18 01:13:19,0.00,0.43,0.00,21.57,27.40,30.68,14.71,49.02,1018.05,2038.99,3307.02,3114.00,3382.91,599.92,599.57,36.12,0000 0000 0000 0000 000000
2015-09-18 01:18:20,0.00,0.43,0.00,21.52,27.40,30.64,14.76,49.08,1018.07,2038.99,3307.00,3114.00,3382.92,599.82,599.71,36.17,0000 0000 0000 0000 000000
2015-09-18 01:23:22,0.00,0.43,0.00,21.58,27.40,30.65,14.68,48.98,1018.08,2038.99,3307.00,3113.99,3382.89,599.87,599.73,36.22,0000 0000 0000 0000 000000
2015-09-18 01:28:23,0.00,0.43,0.00,21.95,27.42,30.53,14.68,48.88,1018.07,2038.99,3307.00,3113.99,3382.84,599.85,598.78,36.27,0000 0000 0000 0000 000000
2015-09-18 01:33:24,0.00,0.43,0.00,21.89,27.42,30.44,14.66,48.92,1018.08,2038.98,3307.00,3113.99,3382.47,599.81,598.97,36.32,0000 0000 0000 0000 000000
2015-09-18 01:38:25,0.00,0.43,0.00,21.73,27.42,30.51,14.74,49.13,1018.08,2038.97,3307.00,3113.98,3382.22,600.11,599.48,36.37,0000 0000 0000 0000 000000
2015-09-18 01:43:27,0.00,0.43,0.00,21.65,27.42,30.64,14.72,49.03,1018.08,2038.98,3307.00,3113.97,3382.11,599.70,599.47,36.42,0000 0000 0000 0000 000000
2015-09-18 01:48:28,0.00,0.43,0.00,21.57,27.42,30.69,14.78,49.05,1018.08,2038.99,3306.99,3113.98,3382.06,600.02,599.72,36.48,0000 0000 0000 0000 000000
2015-09-18 01:53:29,0.00,0.43,0.00,21.56,27.42,30.62,14.78,48.91,1018.08,2038.97,3306.99,3113.97,3382.09,600.03,599.72,36.53,0000 0000 0000 0000 000000
2015-09-18 01:58:31,-0.00,0.43,0.00,21.57,27.42,30.68,14.71,48.98,1018.08,2038.97,3306.99,3113.97,3382.05,600.08,599.81,36.58,0000 0000 0000 0000 000000
2015-09-18 02:03:32,-0.00,0.43,0.00,21.93,27.44,30.54,14.62,48.98,1018.08,2038.97,3306.99,3113.97,3382.06,599.76,598.79,36.63,0000 0000 0000 0000 000000
2015-09-18 02:08:33,0.00,0.43,0.00,21.97,27.45,30.46,14.75,48.97,1018.08,2038.94,3306.98,3113.84,3382.01,600.38,599.18,36.68,0000 0000 0000 0000 000000
2015-09-18 02:13:35,-0.00,0.43,0.00,21.76,27.45,30.51,14.67,48.84,1018.09,2038.94,3306.98,3113.90,3382.02,600.09,599.58,36.73,0000 0000 0000 0000 000000
2015-09-18 02:18:36,-0.00,0.43,0.00,21.68,27.45,30.64,14.72,48.92,1018.10,2038.92,3306.98,3113.77,3382.00,599.86,599.51,36.78,0000 0000 0000 0000 000000
2015-09-18 02:23:37,0.01,0.43,0.00,21.65,27.45,30.73,14.72,48.97,1018.09,2038.92,3306.97,3113.80,3382.01,599.77,599.37,36.83,0000 0000 0000 0000 000000
2015-09-18 02:28:38,0.00,0.43,0.00,21.57,27.45,30.69,14.75,49.04,1018.09,2038.94,3306.96,3113.82,3382.01,600.28,600.07,36.88,0000 0000 0000 0000 000000
2015-09-18 02:33:39,-0.00,0.43,0.00,21.59,27.45,30.68,14.76,48.98,1018.12,2038.92,3306.99,3113.89,3382.01,599.95,599.67,36.93,0000 0000 0000 0000 000000
2015-09-18 02:38:40,0.01,0.43,0.00,21.93,27.46,30.58,14.71,49.06,1018.16,2038.91,3306.98,3113.73,3382.01,600.07,599.17,36.98,0000 0000 0000 0000 000000
2015-09-18 02:43:41,0.00,0.43,0.00,22.10,27.47,30.45,14.72,48.89,1018.25,2038.85,3306.95,3113.36,3382.00,600.25,598.89,37.03,0000 0000 0000 0000 000000
2015-09-18 02:48:43,-0.01,0.43,0.00,21.91,27.47,30.45,14.70,48.95,1018.36,2038.67,3306.94,3113.23,3382.00,599.90,599.14,37.08,0000 0000 0000 0000 000000
2015-09-18 02:53:44,-0.01,0.43,0.00,21.81,27.48,30.53,14.73,48.81,1018.37,2038.48,3306.74,3113.11,3381.99,600.02,599.44,37.13,0000 0000 0000 0000 000000
2015-09-18 02:58:45,-0.01,0.43,0.00,21.70,27.49,30.73,14.70,48.89,1018.39,2038.24,3306.40,3113.03,3381.97,600.01,599.69,37.18,0000 0000 0000 0000 000000
2015-09-18 03:03:47,0.00,0.43,0.00,21.67,27.49,30.75,14.70,49.06,1018.40,2038.15,3306.08,3113.00,3381.96,600.19,599.92,37.23,0000 0000 0000 0000 000000
2015-09-18 03:08:48,-0.00,0.43,0.00,21.65,27.48,30.72,14.80,49.04,1018.46,2038.11,3306.04,3113.00,3381.96,600.35,600.25,37.28,0000 0000 0000 0000 000000
2015-09-18 03:13:49,0.01,0.43,0.00,21.84,27.49,30.55,14.69,48.92,1018.48,2038.23,3306.05,3113.02,3381.97,600.11,599.47,37.33,0000 0000 0000 0000 000000
2015-09-18 03:18:51,-0.00,0.43,0.00,22.07,27.50,30.46,14.72,48.87,1018.53,2038.19,3306.05,3113.00,3381.95,600.03,599.04,37.39,0000 0000 0000 0000 000000
2015-09-18 03:23:52,-0.01,0.43,0.00,21.90,27.50,30.48,14.67,48.77,1018.54,2038.11,3306.02,3113.00,3381.86,600.14,599.55,37.44,0000 0000 0000 0000 000000
2015-09-18 03:28:53,0.01,0.43,0.00,21.76,27.50,30.56,14.67,48.80,1018.55,2038.13,3306.00,3112.99,3381.65,600.10,599.79,37.49,0000 0000 0000 0000 000000
2015-09-18 03:33:55,-0.00,0.43,0.00,21.74,27.51,30.67,14.70,48.84,1018.55,2038.05,3306.00,3112.99,3381.34,600.16,599.81,37.54,0000 0000 0000 0000 000000
2015-09-18 03:38:56,0.00,0.43,0.00,21.93,27.52,30.51,14.74,49.03,1018.55,2038.06,3305.99,3112.99,3381.16,600.11,599.53,37.59,0000 0000 0000 0000 000000
2015-09-18 03:43:57,-0.00,0.43,0.00,22.15,27.52,30.44,14.62,48.86,1018.57,2038.05,3305.99,3112.99,3381.10,599.90,598.83,37.64,0000 0000 0000 0000 000000
2015-09-18 03:48:59,0.01,0.43,0.00,22.01,27.53,30.46,14.71,48.91,1018.57,2038.08,3305.99,3112.99,3381.13,600.01,599.23,37.69,0000 0000 0000 0000 000000
2015-09-18 03:54:00,-0.00,0.43,0.00,21.85,27.54,30.54,14.79,48.98,1018.57,2038.11,3305.98,3112.98,3381.09,600.12,599.70,37.74,0000 0000 0000 0000 000000
2015-09-18 03:59:01,-0.00,0.43,0.00,21.77,27.54,30.66,14.72,48.98,1018.57,2038.07,3305.98,3112.98,3381.08,599.54,599.25,37.79,0000 0000 0000 0000 000000
2015-09-18 04:04:03,-0.00,0.43,0.00,21.73,27.55,30.79,14.76,48.83,1018.57,2038.02,3305.97,3112.97,3381.04,600.32,600.02,37.84,0000 0000 0000 0000 000000
2015-09-18 04:09:04,0.00,0.43,0.00,21.69,27.54,30.76,14.73,48.89,1018.57,2038.05,3305.96,3112.96,3381.03,599.93,599.83,37.89,0000 0000 0000 0000 000000
2015-09-18 04:14:05,0.00,0.43,0.00,22.02,27.55,30.60,14.72,48.86,1018.58,2038.02,3305.96,3112.92,3381.00,600.08,599.24,37.94,0000 0000 0000 0000 000000
2015-09-18 04:19:07,0.00,0.43,0.00,22.19,27.55,30.54,14.68,48.73,1018.59,2038.03,3305.97,3112.96,3381.00,600.11,598.92,37.99,0000 0000 0000 0000 000000
2015-09-18 04:24:08,0.01,0.43,0.00,21.98,27.55,30.56,14.62,48.83,1018.58,2038.02,3305.83,3112.86,3381.01,599.75,599.21,38.04,0000 0000 0000 0000 000000
2015-09-18 04:29:09,0.01,0.43,0.00,21.87,27.55,30.62,14.70,48.82,1018.58,2038.00,3305.37,3112.50,3381.00,599.80,599.18,38.09,0000 0000 0000 0000 000000
2015-09-18 04:34:11,0.01,0.43,0.00,21.76,27.55,30.79,14.73,48.89,1018.58,2038.01,3305.09,3112.23,3381.00,599.85,599.67,38.14,0000 0000 0000 0000 000000
2015-09-18 04:39:12,-0.00,0.43,0.00,21.74,27.55,30.79,14.70,48.93,1018.59,2038.00,3305.05,3112.34,3381.00,600.13,599.91,38.19,0000 0000 0000 0000 000000
2015-09-18 04:44:13,-0.00,0.43,0.00,22.03,27.55,30.61,14.61,48.91,1018.61,2038.03,3305.18,3112.40,3381.00,599.73,598.88,38.24,0000 0000 0000 0000 000000
2015-09-18 04:49:15,0.00,0.43,0.00,22.18,27.57,30.54,14.66,48.67,1018.64,2038.01,3305.22,3112.47,3381.00,599.77,598.72,38.29,0000 0000 0000 0000 000000
2015-09-18 04:54:16,0.00,0.43,0.00,22.01,27.57,30.54,14.70,48.68,1018.65,2038.04,3305.13,3112.28,3381.00,599.97,599.18,38.35,0000 0000 0000 0000 000000
2015-09-18 04:59:17,-0.01,0.43,0.00,21.88,27.57,30.60,14.73,48.73,1018.80,2038.02,3305.05,3112.27,3380.99,600.56,600.15,38.40,0000 0000 0000 0000 000000
2015-09-18 05:04:18,0.01,0.43,0.00,21.78,27.57,30.74,14.72,48.88,1018.82,2038.02,3305.01,3112.13,3380.98,599.95,599.94,38.45,0000 0000 0000 0000 000000
2015-09-18 05:09:19,-0.00,0.43,0.00,21.92,27.57,30.60,14.66,48.77,1018.94,2038.02,3305.00,3112.07,3380.98,600.01,599.61,38.50,0000 0000 0000 0000 000000
2015-09-18 05:14:21,-0.00,0.43,0.00,22.20,27.58,30.55,14.63,48.82,1018.98,2038.01,3305.03,3112.14,3380.98,599.89,598.87,38.55,0000 0000 0000 0000 000000
2015-09-18 05:19:22,0.00,0.43,0.00,22.05,27.60,30.56,14.68,48.77,1019.00,2038.00,3305.01,3112.03,3380.92,600.21,599.60,38.60,0000 0000 0000 0000 000000
2015-09-18 05:24:23,0.00,0.43,0.00,21.90,27.60,30.66,14.73,48.78,1019.00,2038.00,3305.00,3112.03,3380.85,599.91,599.50,38.65,0000 0000 0000 0000 000000
2015-09-18 05:29:24,0.00,0.43,0.00,21.79,27.60,30.76,14.75,48.87,1019.05,2038.00,3305.00,3112.02,3380.87,599.96,599.92,38.70,0000 0000 0000 0000 000000
2015-09-18 05:34:26,0.00,0.43,0.00,21.75,27.59,30.82,14.71,48.88,1019.06,2038.00,3305.00,3112.04,3380.95,599.99,599.96,38.75,0000 0000 0000 0000 000000
2015-09-18 05:39:27,0.00,0.43,0.00,21.81,27.59,30.78,14.81,48.92,1019.06,2038.00,3305.00,3112.03,3380.90,600.20,600.10,38.80,0000 0000 0000 0000 000000
2015-09-18 05:44:28,0.00,0.43,0.00,22.12,27.60,30.59,14.70,48.74,1019.06,2038.00,3305.00,3112.03,3380.69,600.12,599.37,38.85,0000 0000 0000 0000 000000
2015-09-18 05:49:29,0.00,0.43,0.00,22.07,27.60,30.57,14.81,48.69,1019.07,2038.00,3305.00,3112.00,3380.59,599.75,599.16,38.90,0000 0000 0000 0000 000000
2015-09-18 05:54:30,0.00,0.43,0.00,21.88,27.60,30.62,14.68,48.73,1019.08,2038.00,3304.99,3112.00,3380.63,599.56,599.36,38.95,0000 0000 0000 0000 000000
2015-09-18 05:59:32,0.00,0.43,0.00,21.81,27.60,30.74,14.73,48.90,1019.07,2038.00,3304.99,3112.00,3380.53,599.97,599.87,39.00,0000 0000 0000 0000 000000
2015-09-18 06:04:33,0.00,0.43,0.00,21.76,27.60,30.81,14.67,48.68,1019.08,2038.00,3304.98,3112.00,3380.24,599.91,599.90,39.05,0000 0000 0000 0000 000000
2015-09-18 06:09:34,-0.00,0.43,0.00,21.78,27.60,30.81,14.74,48.86,1019.10,2038.00,3304.98,3112.01,3380.26,600.07,600.20,39.10,0000 0000 0000 0000 000000
2015-09-18 06:14:35,0.00,0.43,0.00,22.13,27.60,30.60,14.65,48.69,1019.18,2038.00,3304.96,3112.00,3380.16,600.06,599.16,39.15,0000 0000 0000 0000 000000
2015-09-18 06:19:37,0.00,0.43,0.00,22.14,27.60,30.54,14.71,48.66,1019.18,2038.00,3304.97,3112.00,3380.03,600.16,599.35,39.20,0000 0000 0000 0000 000000
2015-09-18 06:24:38,0.00,0.43,0.00,21.96,27.61,30.56,14.71,48.77,1019.40,2038.00,3304.81,3112.00,3380.01,600.25,600.11,39.25,0000 0000 0000 0000 000000
2015-09-18 06:29:39,0.00,0.43,0.00,21.88,27.62,30.64,14.71,48.78,1019.41,2038.00,3304.55,3112.00,3380.00,599.80,599.72,39.30,0000 0000 0000 0000 000000
2015-09-18 06:34:41,0.00,0.43,0.00,21.82,27.62,30.72,14.60,48.77,1019.51,2037.99,3304.17,3111.98,3380.00,599.54,599.68,39.36,0000 0000 0000 0000 000000
2015-09-18 06:39:42,-0.00,0.43,0.00,22.09,27.62,30.55,14.61,48.64,1019.54,2037.99,3304.27,3111.96,3380.00,599.83,599.39,39.41,0000 0000 0000 0000 000000
2015-09-18 06:44:43,0.00,0.43,0.00,22.15,27.62,30.52,14.66,48.62,1019.55,2037.99,3304.14,3111.97,3379.97,599.75,599.30,39.46,0000 0000 0000 0000 000000
2015-09-18 06:49:44,0.00,0.43,0.00,21.95,27.63,30.60,14.69,48.63,1019.55,2037.98,3304.03,3111.90,3379.98,600.05,599.95,39.51,0000 0000 0000 0000 000000
2015-09-18 06:54:46,-0.00,0.43,0.00,21.87,27.63,30.70,14.70,48.71,1019.55,2037.98,3304.03,3111.95,3379.99,599.98,600.05,39.56,0000 0000 0000 0000 000000
2015-09-18 06:59:47,0.00,0.43,0.00,21.80,27.62,30.84,14.77,48.81,1019.55,2037.99,3304.02,3111.96,3379.99,600.02,600.12,39.61,0000 0000 0000 0000 000000
2015-09-18 07:04:48,-0.00,0.43,0.00,21.73,27.62,30.83,14.74,48.83,1019.55,2037.99,3304.02,3111.91,3379.98,600.27,600.67,39.66,0000 0000 0000 0000 000000
2015-09-18 07:09:49,-0.00,0.43,0.00,21.87,27.62,30.84,14.79,48.75,1019.55,2037.99,3304.01,3111.95,3379.98,600.06,600.10,39.71,0000 0000 0000 0000 000000
2015-09-18 07:14:50,0.00,0.43,0.00,22.22,27.63,30.66,14.65,48.68,1019.56,2037.99,3304.02,3111.96,3379.99,599.95,599.24,39.76,0000 0000 0000 0000 000000
2015-09-18 07:19:52,0.00,0.43,0.00,22.17,27.65,30.58,14.68,48.75,1019.56,2037.98,3304.03,3111.92,3379.97,599.66,599.08,39.81,0000 0000 0000 0000 000000
2015-09-18 07:24:53,0.01,0.43,0.00,22.01,27.65,30.62,14.69,48.70,1019.57,2037.99,3304.00,3111.74,3379.95,599.98,599.81,39.86,0000 0000 0000 0000 000000
2015-09-18 07:29:54,0.01,0.43,0.00,21.91,27.65,30.72,14.70,48.85,1019.59,2037.98,3304.00,3111.45,3379.75,599.79,599.67,39.91,0000 0000 0000 0000 000000
2015-09-18 07:34:55,0.00,0.43,0.00,22.04,27.65,30.56,14.59,48.74,1019.59,2037.98,3303.99,3111.17,3379.43,600.02,599.75,39.96,0000 0000 0000 0000 000000
2015-09-18 07:39:57,-0.00,0.43,0.00,22.28,27.65,30.53,14.73,48.59,1019.58,2037.96,3303.99,3111.09,3379.30,600.37,599.56,40.01,0000 0000 0000 0000 000000
2015-09-18 07:44:58,0.00,0.43,0.00,22.12,27.66,30.55,14.73,48.70,1019.62,2037.96,3303.98,3111.05,3379.08,600.03,599.53,40.06,0000 0000 0000 0000 000000
2015-09-18 07:49:59,0.00,0.43,0.00,21.99,27.67,30.60,14.75,48.79,1019.67,2037.95,3303.90,3111.03,3379.05,600.03,599.85,40.11,0000 0000 0000 0000 000000
2015-09-18 07:55:00,0.00,0.43,0.00,21.91,27.66,30.68,14.69,48.78,1019.76,2037.93,3303.75,3111.00,3379.02,599.81,599.85,40.16,0000 0000 0000 0000 000000
2015-09-18 08:00:02,-0.00,0.43,0.00,21.96,27.65,30.59,14.78,48.73,1019.79,2037.95,3303.51,3111.00,3379.01,600.56,600.53,40.21,0000 0000 0000 0000 000000
2015-09-18 08:05:03,-0.00,0.43,0.00,22.26,27.67,30.55,14.71,48.68,1019.95,2037.95,3303.68,3111.01,3379.01,600.14,599.64,40.27,0000 0000 0000 0000 000000
2015-09-18 08:10:04,-0.00,0.43,0.00,22.15,27.67,30.55,14.71,48.60,1019.98,2037.85,3303.21,3111.00,3379.00,599.76,599.54,40.32,0000 0000 0000 0000 000000
2015-09-18 08:15:05,-0.00,0.43,0.00,22.01,27.67,30.59,14.63,48.67,1020.01,2037.82,3303.05,3111.00,3379.00,599.45,599.41,40.37,0000 0000 0000 0000 000000
2015-09-18 08:20:07,0.01,0.43,0.00,21.93,27.67,30.66,14.66,48.58,1020.03,2037.88,3303.05,3111.00,3379.00,599.86,600.00,40.42,0000 0000 0000 0000 000000
2015-09-18 08:25:08,0.01,0.43,0.00,21.84,27.67,30.73,14.78,48.77,1020.03,2037.89,3303.04,3111.00,3379.00,600.15,600.43,40.47,0000 0000 0000 0000 000000
2015-09-18 08:30:09,-0.01,0.43,0.00,22.06,27.67,30.59,14.68,48.63,1020.03,2037.92,3303.18,3111.00,3379.00,600.12,600.13,40.52,0000 0000 0000 0000 000000
2015-09-18 08:35:10,-0.01,0.43,0.00,22.27,27.67,30.57,14.63,48.52,1020.03,2037.89,3303.34,3111.00,3379.00,599.79,599.29,40.57,0000 0000 0000 0000 000000
2015-09-18 08:40:12,0.01,0.43,0.00,22.09,27.67,30.62,14.73,48.73,1020.03,2037.89,3303.36,3111.00,3379.00,600.12,600.05,40.62,0000 0000 0000 0000 000000
2015-09-18 08:45:13,0.00,0.43,0.00,21.96,27.67,30.68,14.73,48.63,1020.05,2037.88,3303.24,3111.00,3379.00,599.83,599.91,40.67,0000 0000 0000 0000 000000
2015-09-18 08:50:14,-0.01,0.43,0.00,21.85,27.67,30.86,14.76,48.69,1020.06,2037.81,3303.10,3111.00,3379.00,600.07,600.39,40.72,0000 0000 0000 0000 000000
2015-09-18 08:55:16,-0.01,0.43,0.00,21.86,27.67,30.85,14.74,48.85,1020.05,2037.68,3303.02,3111.00,3379.00,600.13,600.49,40.77,0000 0000 0000 0000 000000
2015-09-18 09:00:17,-0.01,0.43,0.00,22.15,27.67,30.68,14.73,48.76,1020.05,2037.69,3303.07,3111.00,3379.00,600.16,599.83,40.82,0000 0000 0000 0000 000000
2015-09-18 09:05:18,0.01,0.43,0.00,22.28,27.67,30.60,14.71,48.63,1020.09,2037.63,3303.15,3111.00,3378.99,600.21,599.84,40.87,0000 0000 0000 0000 000000
2015-09-18 09:10:19,-0.01,0.43,0.00,22.08,27.67,30.61,14.70,48.66,1020.20,2037.64,3303.14,3111.00,3378.99,599.75,599.72,40.92,0000 0000 0000 0000 000000
2015-09-18 09:15:21,-0.00,0.43,0.00,21.93,27.67,30.70,14.73,48.66,1020.36,2037.48,3303.07,3111.00,3378.99,599.95,600.43,40.97,0000 0000 0000 0000 000000
2015-09-18 09:20:22,-0.01,0.43,0.00,21.87,27.67,30.86,14.76,48.83,1020.44,2037.55,3303.07,3111.00,3378.99,599.95,600.49,41.02,0000 0000 0000 0000 000000
2015-09-18 09:25:23,0.02,0.43,0.00,21.81,27.65,30.89,14.66,48.83,1020.50,2037.67,3303.04,3111.00,3378.99,600.05,600.75,41.07,0000 0000 0000 0000 000000
2015-09-18 09:30:25,0.01,0.43,0.00,21.96,27.65,30.78,14.73,48.74,1020.52,2037.77,3303.05,3111.00,3378.99,600.23,600.71,41.12,0000 0000 0000 0000 000000
2015-09-18 09:35:26,-0.00,0.43,0.00,22.25,27.66,30.66,14.71,48.75,1020.52,2037.89,3303.12,3111.00,3378.99,599.98,599.81,41.17,0000 0000 0000 0000 000000
2015-09-18 09:40:27,0.00,0.43,0.00,22.15,27.67,30.64,14.77,48.73,1020.52,2037.88,3303.16,3111.00,3378.99,600.25,600.22,41.23,0000 0000 0000 0000 000000
2015-09-18 09:45:28,-0.01,0.43,0.00,21.98,27.66,30.69,14.70,48.75,1020.52,2037.72,3303.14,3111.00,3378.99,600.02,600.40,41.28,0000 0000 0000 0000 000000
2015-09-18 09:50:29,-0.01,0.43,0.00,21.91,27.65,30.85,14.82,48.77,1020.52,2037.61,3303.13,3111.00,3378.99,600.06,600.66,41.33,0000 0000 0000 0000 000000
2015-09-18 09:55:30,0.01,0.43,0.00,21.83,27.65,30.88,14.76,48.64,1020.52,2037.68,3303.23,3111.00,3378.99,600.18,600.86,41.38,0000 0000 0000 0000 000000
2015-09-18 10:00:31,0.01,0.43,0.00,22.01,27.65,30.77,14.72,48.70,1020.54,2037.78,3303.54,3111.01,3378.99,600.46,600.88,41.43,0000 0000 0000 0000 000000
2015-09-18 10:05:32,-0.00,0.43,0.00,22.26,27.65,30.61,14.65,48.67,1020.54,2037.87,3303.85,3111.01,3379.00,599.92,599.80,41.48,0000 0000 0000 0000 000000
2015-09-18 10:10:34,-0.00,0.43,0.00,22.09,27.65,30.61,14.67,48.62,1020.55,2037.87,3303.78,3111.02,3379.00,599.94,600.03,41.53,0000 0000 0000 0000 000000
2015-09-18 10:15:35,0.00,0.43,0.00,21.98,27.65,30.67,14.72,48.63,1020.55,2037.75,3303.28,3111.00,3379.00,600.05,600.36,41.58,0000 0000 0000 0000 000000
2015-09-18 10:20:37,0.00,0.43,0.00,21.87,27.65,30.87,14.68,48.83,1020.54,2037.78,3303.16,3111.00,3379.00,599.74,600.37,41.63,0000 0000 0000 0000 000000
2015-09-18 10:25:38,0.01,0.43,0.00,21.80,27.65,30.87,14.76,48.72,1020.57,2037.89,3303.23,3111.02,3379.00,600.30,601.10,41.68,0000 0000 0000 0000 000000
2015-09-18 10:30:40,0.00,0.43,0.00,21.93,27.65,30.82,14.72,48.66,1020.66,2037.95,3303.27,3111.02,3379.00,599.87,600.46,41.73,0000 0000 0000 0000 000000
2015-09-18 10:35:41,-0.01,0.43,0.00,22.23,27.65,30.71,14.71,48.55,1020.81,2037.87,3303.20,3111.00,3379.00,600.09,600.14,41.78,0000 0000 0000 0000 000000
2015-09-18 10:40:42,0.01,0.43,0.00,22.20,27.65,30.66,14.58,48.46,1020.94,2037.92,3303.27,3111.00,3379.00,599.68,599.89,41.83,0000 0000 0000 0000 000000
2015-09-18 10:45:43,0.00,0.43,0.00,22.01,27.65,30.69,14.67,48.65,1020.97,2037.91,3303.18,3111.00,3379.00,599.93,600.53,41.88,0000 0000 0000 0000 000000
2015-09-18 10:50:44,-0.00,0.43,0.00,21.87,27.65,30.83,14.72,48.71,1021.00,2037.87,3303.07,3111.00,3379.00,599.97,600.91,41.93,0000 0000 0000 0000 000000
2015-09-18 10:55:45,-0.00,0.43,0.00,21.85,27.65,30.89,14.73,48.75,1021.01,2037.85,3303.05,3111.00,3379.00,599.68,600.54,41.98,0000 0000 0000 0000 000000
2015-09-18 11:00:47,-0.01,0.43,0.00,22.09,27.65,30.68,14.75,48.72,1021.01,2037.86,3303.08,3111.00,3379.00,600.26,600.70,42.03,0000 0000 0000 0000 000000
2015-09-18 11:05:48,-0.02,0.43,0.00,22.20,27.65,30.63,14.65,48.65,1021.01,2037.60,3303.04,3111.00,3379.00,599.92,600.27,42.08,0000 0000 0000 0000 000000
2015-09-18 11:10:49,-0.01,0.43,0.00,22.08,27.65,30.54,14.63,48.59,1021.02,2037.49,3303.03,3111.00,3378.99,599.57,600.00,42.14,0000 0000 0000 0000 000000
2015-09-18 11:15:51,0.01,0.43,0.00,22.18,27.66,30.48,14.56,48.57,1021.03,2037.49,3303.08,3111.00,3378.99,599.67,600.04,42.19,0000 0000 0000 0000 000000
2015-09-18 11:20:52,-0.01,0.43,0.00,22.09,27.67,30.52,14.61,48.47,1021.04,2037.44,3303.02,3111.00,3378.99,599.62,600.10,42.24,0000 0000 0000 0000 000000
2015-09-18 11:25:53,-0.01,0.43,0.00,21.94,27.66,30.59,14.74,48.63,1021.04,2037.24,3303.00,3110.99,3378.98,600.16,600.75,42.29,0000 0000 0000 0000 000000
2015-09-18 11:30:55,-0.01,0.43,0.00,21.85,27.65,30.68,14.76,48.66,1021.03,2037.14,3303.00,3110.99,3378.97,600.00,600.96,42.34,0000 0000 0000 0000 000000
2015-09-18 11:35:56,0.00,0.43,0.00,21.79,27.65,30.82,14.75,48.80,1021.03,2037.13,3303.00,3110.99,3378.97,599.65,600.79,42.39,0000 0000 0000 0000 000000
2015-09-18 11:40:57,0.01,0.43,0.00,21.74,27.65,30.89,14.78,48.73,1021.02,2037.24,3303.01,3110.99,3378.98,600.18,601.39,42.44,0000 0000 0000 0000 000000
2015-09-18 11:45:58,0.03,0.43,0.00,22.05,27.65,30.65,14.63,48.66,1021.02,2037.43,3303.03,3110.99,3378.98,599.87,600.40,42.49,0000 0000 0000 0000 000000
2015-09-18 11:51:00,0.01,0.43,0.00,22.19,27.65,30.62,14.68,48.75,1021.03,2037.61,3303.05,3111.00,3378.99,600.06,600.35,42.54,0000 0000 0000 0000 000000
2015-09-18 11:56:01,-0.02,0.43,0.00,21.99,27.65,30.62,14.71,48.71,1021.02,2037.58,3303.05,3111.00,3378.99,599.89,600.58,42.59,0000 0000 0000 0000 000000
2015-09-18 12:01:02,0.02,0.43,0.00,21.87,27.64,30.72,14.78,48.71,1021.03,2037.65,3303.02,3111.00,3378.99,600.37,601.18,42.64,0000 0000 0000 0000 000000
2015-09-18 12:06:03,0.02,0.43,0.00,21.76,27.62,30.89,14.75,48.76,1021.04,2037.84,3303.03,3111.00,3378.99,600.18,601.26,42.69,0000 0000 0000 0000 000000
2015-09-18 12:11:04,-0.00,0.43,0.00,21.71,27.62,30.82,14.80,48.78,1021.04,2037.78,3303.02,3111.00,3378.99,599.96,601.21,42.74,0000 0000 0000 0000 000000
2015-09-18 12:16:06,0.00,0.43,0.00,21.71,27.62,30.83,14.82,48.80,1021.07,2037.81,3303.02,3111.00,3378.99,599.91,601.14,42.79,0000 0000 0000 0000 000000
2015-09-18 12:21:07,0.01,0.43,0.00,22.06,27.62,30.72,14.70,48.63,1021.10,2037.90,3303.05,3111.00,3378.99,600.01,600.63,42.84,0000 0000 0000 0000 000000
2015-09-18 12:26:08,-0.00,0.43,0.00,22.10,27.62,30.62,14.69,48.67,1021.06,2037.94,3303.07,3111.01,3379.00,600.10,600.57,42.89,0000 0000 0000 0000 000000
2015-09-18 12:31:09,-0.00,0.43,0.00,21.92,27.62,30.53,14.66,48.59,1021.06,2037.93,3303.02,3111.00,3379.00,599.93,600.72,42.94,0000 0000 0000 0000 000000
2015-09-18 12:36:11,-0.00,0.43,0.00,21.88,27.62,30.49,14.72,48.58,1021.06,2037.95,3303.07,3111.03,3379.00,599.98,600.89,42.99,0000 0000 0000 0000 000000
2015-09-18 12:41:12,-0.00,0.43,0.00,21.92,27.62,30.51,14.72,48.61,1021.05,2037.92,3303.03,3111.01,3379.00,599.89,600.74,43.04,0000 0000 0000 0000 000000
2015-09-18 12:46:13,-0.00,0.43,0.00,21.92,27.62,30.50,14.71,48.60,1021.04,2037.92,3303.01,3111.00,3379.00,599.94,600.77,43.09,0000 0000 0000 0000 000000
2015-09-18 12:51:14,-0.02,0.43,0.00,21.88,27.62,30.50,14.78,48.58,1021.05,2037.70,3303.00,3111.00,3378.99,599.94,600.87,43.15,0000 0000 0000 0000 000000
2015-09-18 12:56:16,0.00,0.43,0.00,21.87,27.62,30.49,14.78,48.46,1021.09,2037.59,3303.00,3110.99,3378.98,600.43,601.43,43.20,0000 0000 0000 0000 000000